Time,TemperatureF,DewpointF,PressureIn,WindDirection,WindDirectionDegrees,WindSpeedMPH,WindSpeedGustMPH,Humidity,HourlyPrecipIn,Conditions,Clouds,dailyrainin,SoftwareType,DateUTC
2013-04-15 00:04:00,62.4,44.9,29.77,SE,135,0.0,5.3,53,0.00,,,0.00,WUHU216HW,2013-04-15 04:04:00,
2013-04-15 00:09:00,62.4,45.4,29.77,SE,135,0.0,1.7,54,0.00,,,0.00,WUHU216HW,2013-04-15 04:09:00,
2013-04-15 00:14:00,62.2,45.3,29.78,SE,135,4.2,4.2,54,0.00,,,0.00,WUHU216HW,2013-04-15 04:14:00,
2013-04-15 00:19:00,62.0,45.1,29.78,ESE,113,0.0,4.2,54,0.00,,,0.00,WUHU216HW,2013-04-15 04:19:00,
2013-04-15 00:24:00,61.8,45.4,29.78,SE,135,0.0,0.2,55,0.00,,,0.00,WUHU216HW,2013-04-15 04:24:00,
2013-04-15 00:29:00,61.7,45.3,29.79,ESE,113,0.2,0.2,55,0.00,,,0.00,WUHU216HW,2013-04-15 04:29:00,
2013-04-15 00:34:00,61.5,45.6,29.79,SE,135,12.9,12.9,56,0.00,,,0.00,WUHU216HW,2013-04-15 04:34:00,
2013-04-15 00:39:00,61.5,45.6,29.79,SE,135,2.2,12.9,56,0.00,,,0.00,WUHU216HW,2013-04-15 04:39:00,
2013-04-15 00:44:00,61.3,45.4,29.79,SSE,158,0.0,12.9,56,0.00,,,0.00,WUHU216HW,2013-04-15 04:44:00,
2013-04-15 00:49:00,61.1,45.8,29.79,SE,135,0.0,4.6,57,0.00,,,0.00,WUHU216HW,2013-04-15 04:49:00,
2013-04-15 00:54:00,61.1,45.8,29.79,SE,135,0.0,4.6,57,0.00,,,0.00,WUHU216HW,2013-04-15 04:54:00,
2013-04-15 00:59:00,60.9,45.6,29.78,ESE,113,0.0,0.0,57,0.00,,,0.00,WUHU216HW,2013-04-15 04:59:00,
2013-04-15 01:04:00,60.6,45.7,29.78,SE,135,0.4,0.4,58,0.00,,,0.00,WUHU216HW,2013-04-15 05:04:00,
2013-04-15 01:09:00,60.6,45.7,29.78,South,180,0.0,0.4,58,0.00,,,0.00,WUHU216HW,2013-04-15 05:09:00,
2013-04-15 01:14:00,60.6,45.7,29.78,SE,135,0.0,0.4,58,0.00,,,0.00,WUHU216HW,2013-04-15 05:14:00,
2013-04-15 01:19:00,60.4,46.0,29.78,SE,135,4.6,4.6,59,0.00,,,0.00,WUHU216HW,2013-04-15 05:19:00,
2013-04-15 01:24:00,60.4,46.0,29.79,SE,135,1.3,4.6,59,0.00,,,0.00,WUHU216HW,2013-04-15 05:24:00,
2013-04-15 01:29:00,60.4,46.0,29.79,SE,135,0.0,4.6,59,0.00,,,0.00,WUHU216HW,2013-04-15 05:29:00,
2013-04-15 01:34:00,60.0,45.7,29.79,SSE,158,0.0,0.0,59,0.00,,,0.00,WUHU216HW,2013-04-15 05:34:00,
2013-04-15 01:39:00,60.0,46.2,29.79,ENE,68,0.0,0.2,60,0.00,,,0.00,WUHU216HW,2013-04-15 05:39:00,
2013-04-15 01:44:00,59.9,46.0,29.79,South,180,0.0,0.8,60,0.00,,,0.00,WUHU216HW,2013-04-15 05:44:00,
2013-04-15 01:49:00,59.7,45.8,29.79,SE,135,5.1,5.1,60,0.00,,,0.00,WUHU216HW,2013-04-15 05:49:00,
2013-04-15 01:54:00,59.7,45.8,29.80,SE,135,3.3,5.1,60,0.00,,,0.00,WUHU216HW,2013-04-15 05:54:00,
2013-04-15 01:59:00,59.7,45.8,29.79,SSE,158,0.0,5.1,60,0.00,,,0.00,WUHU216HW,2013-04-15 05:59:00,
2013-04-15 02:04:00,59.5,46.0,29.79,SE,135,0.0,1.5,61,0.00,,,0.00,WUHU216HW,2013-04-15 06:04:00,
2013-04-15 02:09:00,59.5,45.6,29.79,ESE,113,0.0,1.5,60,0.00,,,0.00,WUHU216HW,2013-04-15 06:09:00,
2013-04-15 02:14:00,59.5,46.0,29.80,ESE,113,2.0,2.0,61,0.00,,,0.00,WUHU216HW,2013-04-15 06:14:00,
2013-04-15 02:19:00,59.5,46.0,29.80,South,180,0.0,2.6,61,0.00,,,0.00,WUHU216HW,2013-04-15 06:19:00,
2013-04-15 02:24:00,59.5,46.0,29.80,South,180,0.0,2.9,61,0.00,,,0.00,WUHU216HW,2013-04-15 06:24:00,
2013-04-15 02:29:00,59.5,46.0,29.80,NNE,23,0.0,2.9,61,0.00,,,0.00,WUHU216HW,2013-04-15 06:29:00,
2013-04-15 02:34:00,59.5,46.0,29.79,South,180,0.0,10.9,61,0.00,,,0.00,WUHU216HW,2013-04-15 06:34:00,
2013-04-15 02:39:00,59.5,46.0,29.79,South,180,0.0,10.9,61,0.00,,,0.00,WUHU216HW,2013-04-15 06:39:00,
2013-04-15 02:44:00,59.5,46.0,29.80,SE,135,6.2,6.9,61,0.00,,,0.00,WUHU216HW,2013-04-15 06:44:00,
2013-04-15 02:49:00,59.5,46.0,29.80,ESE,113,0.0,6.2,61,0.00,,,0.00,WUHU216HW,2013-04-15 06:49:00,
2013-04-15 02:54:00,59.5,46.0,29.80,ESE,113,0.0,0.4,61,0.00,,,0.00,WUHU216HW,2013-04-15 06:54:00,
2013-04-15 02:59:00,59.5,46.0,29.80,ESE,113,0.0,0.0,61,0.00,,,0.00,WUHU216HW,2013-04-15 06:59:00,
2013-04-15 03:05:00,59.7,46.6,29.80,East,90,0.0,6.7,62,0.00,,,0.00,WUHU216HW,2013-04-15 07:05:00,
2013-04-15 03:08:00,59.5,46.5,29.80,SSE,158,0.0,6.7,62,0.00,,,0.00,WUHU216HW,2013-04-15 07:08:00,
2013-04-15 03:15:00,59.7,46.6,29.80,SSE,158,0.0,8.0,62,0.00,,,0.00,WUHU216HW,2013-04-15 07:15:00,
2013-04-15 03:21:00,59.7,46.6,29.80,East,90,0.0,0.0,62,0.00,,,0.00,WUHU216HW,2013-04-15 07:21:00,
2013-04-15 03:28:00,59.5,46.5,29.80,SE,135,1.3,7.3,62,0.00,,,0.00,WUHU216HW,2013-04-15 07:28:00,
2013-04-15 03:41:00,59.5,46.5,29.80,SE,135,0.0,7.3,62,0.00,,,0.00,WUHU216HW,2013-04-15 07:41:00,
2013-04-15 03:47:00,59.5,46.5,29.80,SSE,158,0.8,0.8,62,0.00,,,0.00,WUHU216HW,2013-04-15 07:47:00,
2013-04-15 03:52:00,59.5,46.9,29.81,ESE,113,0.0,0.8,63,0.00,,,0.00,WUHU216HW,2013-04-15 07:52:00,
2013-04-15 03:57:00,59.3,46.9,29.81,ENE,68,0.0,0.0,63,0.00,,,0.00,WUHU216HW,2013-04-15 07:57:00,
2013-04-15 04:02:00,59.3,46.7,29.82,ENE,68,0.0,0.0,63,0.00,,,0.00,WUHU216HW,2013-04-15 08:02:00,
2013-04-15 04:07:00,59.3,46.7,29.82,SSE,158,0.0,0.0,63,0.00,,,0.00,WUHU216HW,2013-04-15 08:07:00,
2013-04-15 04:12:00,59.3,46.7,29.82,SSE,158,0.0,0.0,63,0.00,,,0.00,WUHU216HW,2013-04-15 08:12:00,
2013-04-15 04:17:00,59.1,46.5,29.82,SE,135,0.0,0.0,63,0.00,,,0.00,WUHU216HW,2013-04-15 08:17:00,
2013-04-15 04:22:00,59.3,46.7,29.82,SE,135,3.1,3.1,63,0.00,,,0.00,WUHU216HW,2013-04-15 08:22:00,
2013-04-15 04:27:00,59.3,46.7,29.82,SE,135,0.0,3.1,63,0.00,,,0.00,WUHU216HW,2013-04-15 08:27:00,
2013-04-15 04:32:00,59.3,47.1,29.82,ENE,68,0.0,0.0,64,0.00,,,0.00,WUHU216HW,2013-04-15 08:32:00,
2013-04-15 04:37:00,59.1,46.9,29.82,SE,135,0.0,0.0,64,0.00,,,0.00,WUHU216HW,2013-04-15 08:37:00,
2013-04-15 04:42:00,59.1,46.9,29.82,ESE,113,0.0,0.0,64,0.00,,,0.00,WUHU216HW,2013-04-15 08:42:00,
2013-04-15 04:47:00,59.1,46.9,29.82,ESE,113,0.0,0.0,64,0.00,,,0.00,WUHU216HW,2013-04-15 08:47:00,
2013-04-15 04:52:00,59.1,46.9,29.82,ESE,113,0.0,0.0,64,0.00,,,0.00,WUHU216HW,2013-04-15 08:52:00,
2013-04-15 04:57:00,59.1,46.9,29.82,ESE,113,0.0,0.0,64,0.00,,,0.00,WUHU216HW,2013-04-15 08:57:00,
2013-04-15 05:02:00,59.0,46.7,29.82,ESE,113,0.0,0.0,64,0.00,,,0.00,WUHU216HW,2013-04-15 09:02:00,
2013-04-15 05:07:00,59.0,47.2,29.82,East,90,0.0,0.0,65,0.00,,,0.00,WUHU216HW,2013-04-15 09:07:00,
2013-04-15 05:12:00,58.8,47.0,29.81,East,90,0.0,0.0,65,0.00,,,0.00,WUHU216HW,2013-04-15 09:12:00,
2013-04-15 05:17:00,58.8,47.0,29.80,ENE,68,0.0,0.0,65,0.00,,,0.00,WUHU216HW,2013-04-15 09:17:00,
2013-04-15 05:22:00,58.8,47.0,29.80,ENE,68,0.0,0.0,65,0.00,,,0.00,WUHU216HW,2013-04-15 09:22:00,
2013-04-15 05:27:00,58.8,47.0,29.80,SE,135,0.0,0.0,65,0.00,,,0.00,WUHU216HW,2013-04-15 09:27:00,
2013-04-15 05:32:00,58.8,47.0,29.80,SE,135,0.0,0.0,65,0.00,,,0.00,WUHU216HW,2013-04-15 09:32:00,
2013-04-15 05:37:00,58.8,47.0,29.80,ESE,113,0.0,0.0,65,0.00,,,0.00,WUHU216HW,2013-04-15 09:37:00,
2013-04-15 05:42:00,58.8,47.4,29.80,ENE,68,0.0,0.0,66,0.00,,,0.00,WUHU216HW,2013-04-15 09:42:00,
2013-04-15 05:47:00,58.8,47.4,29.79,ESE,113,0.0,0.0,66,0.00,,,0.00,WUHU216HW,2013-04-15 09:47:00,
2013-04-15 05:52:00,58.8,47.4,29.79,East,90,0.0,0.0,66,0.00,,,0.00,WUHU216HW,2013-04-15 09:52:00,
2013-04-15 05:57:00,58.8,47.4,29.80,ESE,113,0.0,0.0,66,0.00,,,0.00,WUHU216HW,2013-04-15 09:57:00,
2013-04-15 06:02:00,58.8,47.4,29.79,SE,135,0.0,0.0,66,0.00,,,0.00,WUHU216HW,2013-04-15 10:02:00,
2013-04-15 06:07:00,58.8,47.4,29.79,SE,135,0.0,0.0,66,0.00,,,0.00,WUHU216HW,2013-04-15 10:07:00,
2013-04-15 06:12:00,58.6,47.2,29.79,East,90,0.0,0.0,66,0.00,,,0.00,WUHU216HW,2013-04-15 10:12:00,
2013-04-15 06:17:00,58.6,47.6,29.79,ESE,113,0.0,0.0,67,0.00,,,0.00,WUHU216HW,2013-04-15 10:17:00,
2013-04-15 06:23:00,58.4,47.4,29.80,SSE,158,0.0,0.0,67,0.00,,,0.00,WUHU216HW,2013-04-15 10:23:00,
2013-04-15 06:28:00,58.4,47.4,29.80,ENE,68,0.0,0.0,67,0.00,,,0.00,WUHU216HW,2013-04-15 10:28:00,
2013-04-15 06:33:00,58.2,47.3,29.79,ESE,113,0.0,0.0,67,0.00,,,0.00,WUHU216HW,2013-04-15 10:33:00,
2013-04-15 06:38:00,58.2,47.3,29.80,SSE,158,0.0,0.0,67,0.00,,,0.00,WUHU216HW,2013-04-15 10:38:00,
2013-04-15 06:43:00,58.4,47.4,29.80,SSE,158,0.0,0.0,67,0.00,,,0.00,WUHU216HW,2013-04-15 10:43:00,
2013-04-15 06:48:00,58.2,47.7,29.81,ESE,113,0.0,0.0,68,0.00,,,0.00,WUHU216HW,2013-04-15 10:48:00,
2013-04-15 06:53:00,58.2,47.7,29.81,ESE,113,0.0,0.0,68,0.00,,,0.00,WUHU216HW,2013-04-15 10:53:00,
2013-04-15 06:58:00,58.2,47.7,29.81,SE,135,0.0,0.0,68,0.00,,,0.00,WUHU216HW,2013-04-15 10:58:00,
2013-04-15 07:03:00,58.2,47.7,29.81,SE,135,0.0,0.0,68,0.00,,,0.00,WUHU216HW,2013-04-15 11:03:00,
2013-04-15 07:08:00,58.2,47.7,29.82,SE,135,0.0,0.0,68,0.00,,,0.00,WUHU216HW,2013-04-15 11:08:00,
2013-04-15 07:13:00,58.2,47.7,29.82,ESE,113,0.0,0.0,68,0.00,,,0.00,WUHU216HW,2013-04-15 11:13:00,
2013-04-15 07:18:00,58.1,47.5,29.82,SE,135,0.0,5.3,68,0.00,,,0.00,WUHU216HW,2013-04-15 11:18:00,
2013-04-15 07:23:00,58.1,47.5,29.83,SE,135,0.0,5.3,68,0.00,,,0.00,WUHU216HW,2013-04-15 11:23:00,
2013-04-15 07:28:00,58.1,47.5,29.83,SE,135,0.0,0.0,68,0.00,,,0.00,WUHU216HW,2013-04-15 11:28:00,
2013-04-15 07:33:00,58.1,47.5,29.83,ESE,113,0.0,0.0,68,0.00,,,0.00,WUHU216HW,2013-04-15 11:33:00,
2013-04-15 07:38:00,58.1,47.5,29.83,ESE,113,0.0,0.0,68,0.00,,,0.00,WUHU216HW,2013-04-15 11:38:00,
2013-04-15 07:43:00,58.1,47.9,29.83,East,90,0.0,0.0,69,0.00,,,0.00,WUHU216HW,2013-04-15 11:43:00,
2013-04-15 07:48:00,58.1,47.9,29.84,SE,135,0.0,0.0,69,0.00,,,0.00,WUHU216HW,2013-04-15 11:48:00,
2013-04-15 07:53:00,58.1,47.9,29.83,SE,135,0.0,0.0,69,0.00,,,0.00,WUHU216HW,2013-04-15 11:53:00,
2013-04-15 07:58:00,58.1,47.9,29.84,East,90,0.0,0.0,69,0.00,,,0.00,WUHU216HW,2013-04-15 11:58:00,
2013-04-15 08:03:00,58.2,48.1,29.85,East,90,0.0,0.0,69,0.00,,,0.00,WUHU216HW,2013-04-15 12:03:00,
2013-04-15 08:08:00,58.2,48.1,29.85,East,90,0.0,0.0,69,0.00,,,0.00,WUHU216HW,2013-04-15 12:08:00,
2013-04-15 08:13:00,58.2,48.1,29.85,SE,135,0.0,0.0,69,0.00,,,0.00,WUHU216HW,2013-04-15 12:13:00,
2013-04-15 08:18:00,58.2,48.1,29.85,SE,135,0.0,0.0,69,0.00,,,0.00,WUHU216HW,2013-04-15 12:18:00,
2013-04-15 08:23:00,58.4,48.3,29.85,East,90,0.0,0.0,69,0.00,,,0.00,WUHU216HW,2013-04-15 12:23:00,
2013-04-15 08:28:00,58.4,48.7,29.85,ESE,113,0.0,0.0,70,0.00,,,0.00,WUHU216HW,2013-04-15 12:28:00,
2013-04-15 08:33:00,58.6,48.9,29.85,SE,135,0.0,0.0,70,0.00,,,0.00,WUHU216HW,2013-04-15 12:33:00,
2013-04-15 08:39:00,58.6,48.9,29.85,SE,135,0.0,0.0,70,0.00,,,0.00,WUHU216HW,2013-04-15 12:39:00,
2013-04-15 08:44:00,58.8,49.1,29.85,ESE,113,0.0,0.0,70,0.00,,,0.00,WUHU216HW,2013-04-15 12:44:00,
2013-04-15 08:49:00,58.8,49.1,29.85,SE,135,0.0,0.0,70,0.00,,,0.00,WUHU216HW,2013-04-15 12:49:00,
2013-04-15 08:54:00,58.8,49.1,29.86,SE,135,0.0,0.0,70,0.00,,,0.00,WUHU216HW,2013-04-15 12:54:00,
2013-04-15 08:59:00,58.8,49.1,29.86,SSE,158,0.0,0.0,70,0.00,,,0.00,WUHU216HW,2013-04-15 12:59:00,
2013-04-15 09:04:00,58.8,49.1,29.85,SSE,158,0.0,0.0,70,0.00,,,0.00,WUHU216HW,2013-04-15 13:04:00,
2013-04-15 09:09:00,58.8,49.1,29.85,ESE,113,0.0,0.0,70,0.00,,,0.00,WUHU216HW,2013-04-15 13:09:00,
2013-04-15 09:14:00,58.8,49.1,29.86,SE,135,0.0,0.0,70,0.00,,,0.00,WUHU216HW,2013-04-15 13:14:00,
2013-04-15 09:19:00,58.8,49.1,29.86,SSE,158,0.0,0.0,70,0.00,,,0.00,WUHU216HW,2013-04-15 13:19:00,
2013-04-15 09:24:00,58.8,49.1,29.86,SSE,158,0.0,0.0,70,0.00,,,0.00,WUHU216HW,2013-04-15 13:24:00,
2013-04-15 09:29:00,59.0,49.6,29.86,SSE,158,0.0,0.0,71,0.00,,,0.00,WUHU216HW,2013-04-15 13:29:00,
2013-04-15 09:34:00,59.1,49.8,29.86,ESE,113,0.0,0.0,71,0.00,,,0.00,WUHU216HW,2013-04-15 13:34:00,
2013-04-15 09:39:00,59.3,50.0,29.86,ESE,113,0.0,0.0,71,0.00,,,0.00,WUHU216HW,2013-04-15 13:39:00,
2013-04-15 09:44:00,59.5,50.1,29.86,SSE,158,0.0,0.0,71,0.00,,,0.00,WUHU216HW,2013-04-15 13:44:00,
2013-04-15 09:49:00,59.5,50.1,29.86,SE,135,0.0,3.5,71,0.00,,,0.00,WUHU216HW,2013-04-15 13:49:00,
2013-04-15 09:54:00,59.5,50.1,29.86,SE,135,0.0,3.5,71,0.00,,,0.00,WUHU216HW,2013-04-15 13:54:00,
2013-04-15 09:59:00,59.7,50.3,29.86,SSE,158,0.0,0.0,71,0.00,,,0.00,WUHU216HW,2013-04-15 13:59:00,
2013-04-15 10:04:00,59.9,50.5,29.86,SE,135,4.0,4.0,71,0.00,,,0.00,WUHU216HW,2013-04-15 14:04:00,
2013-04-15 10:09:00,59.9,50.5,29.86,South,180,0.0,4.0,71,0.00,,,0.00,WUHU216HW,2013-04-15 14:09:00,
2013-04-15 10:14:00,60.0,50.7,29.86,ESE,113,0.0,4.0,71,0.00,,,0.00,WUHU216HW,2013-04-15 14:14:00,
2013-04-15 10:19:00,60.4,51.0,29.86,SE,135,0.0,0.0,71,0.00,,,0.00,WUHU216HW,2013-04-15 14:19:00,
2013-04-15 10:24:00,60.4,51.0,29.86,SSE,158,6.7,6.7,71,0.00,,,0.00,WUHU216HW,2013-04-15 14:24:00,
2013-04-15 10:29:00,60.6,50.9,29.86,SW,225,0.0,6.7,70,0.00,,,0.00,WUHU216HW,2013-04-15 14:29:00,
2013-04-15 10:34:00,60.6,51.2,29.86,SW,225,0.0,0.0,71,0.00,,,0.00,WUHU216HW,2013-04-15 14:34:00,
2013-04-15 10:39:00,60.9,51.2,29.86,South,180,0.0,1.5,70,0.00,,,0.00,WUHU216HW,2013-04-15 14:39:00,
2013-04-15 10:44:00,61.3,51.9,29.86,SSE,158,5.8,5.8,71,0.00,,,0.00,WUHU216HW,2013-04-15 14:44:00,
2013-04-15 10:49:00,61.5,51.7,29.87,SE,135,2.4,5.8,70,0.00,,,0.00,WUHU216HW,2013-04-15 14:49:00,
2013-04-15 10:54:00,61.5,51.7,29.86,South,180,1.7,5.8,70,0.00,,,0.00,WUHU216HW,2013-04-15 14:54:00,
2013-04-15 10:59:00,61.8,52.0,29.87,South,180,0.0,1.7,70,0.00,,,0.00,WUHU216HW,2013-04-15 14:59:00,
2013-04-15 11:04:00,62.0,51.8,29.86,SE,135,8.9,8.9,69,0.00,,,0.00,WUHU216HW,2013-04-15 15:04:00,
2013-04-15 11:09:00,62.2,51.9,29.86,NNE,23,0.0,8.9,69,0.00,,,0.00,WUHU216HW,2013-04-15 15:09:00,
2013-04-15 11:14:00,62.4,52.1,29.86,WSW,248,0.0,8.9,69,0.00,,,0.00,WUHU216HW,2013-04-15 15:14:00,
2013-04-15 11:19:00,62.4,52.1,29.87,WSW,248,4.0,8.2,69,0.00,,,0.00,WUHU216HW,2013-04-15 15:19:00,
2013-04-15 11:24:00,62.7,52.0,29.88,SE,135,0.0,4.0,68,0.00,,,0.00,WUHU216HW,2013-04-15 15:24:00,
2013-04-15 11:29:00,62.7,52.0,29.87,East,90,0.0,4.0,68,0.00,,,0.00,WUHU216HW,2013-04-15 15:29:00,
2013-04-15 11:34:00,62.9,52.2,29.87,ENE,68,0.0,0.0,68,0.00,,,0.00,WUHU216HW,2013-04-15 15:34:00,
2013-04-15 11:39:00,63.1,52.3,29.88,ENE,68,0.0,0.0,68,0.00,,,0.00,WUHU216HW,2013-04-15 15:39:00,
2013-04-15 11:44:00,63.3,52.5,29.87,SSE,158,0.0,0.0,68,0.00,,,0.00,WUHU216HW,2013-04-15 15:44:00,
2013-04-15 11:49:00,63.3,52.5,29.87,SSE,158,0.0,0.0,68,0.00,,,0.00,WUHU216HW,2013-04-15 15:49:00,
2013-04-15 11:54:00,63.3,52.1,29.87,ESE,113,0.0,0.0,67,0.00,,,0.00,WUHU216HW,2013-04-15 15:54:00,
2013-04-15 11:59:00,63.5,52.3,29.88,SSW,203,0.6,0.6,67,0.00,,,0.00,WUHU216HW,2013-04-15 15:59:00,
2013-04-15 12:04:00,63.6,52.5,29.88,SSE,158,6.4,6.4,67,0.00,,,0.00,WUHU216HW,2013-04-15 16:04:00,
2013-04-15 12:10:00,63.6,52.5,29.88,SE,135,0.0,6.4,67,0.00,,,0.00,WUHU216HW,2013-04-15 16:10:00,
2013-04-15 12:15:00,63.8,52.6,29.88,South,180,0.0,6.4,67,0.00,,,0.00,WUHU216HW,2013-04-15 16:15:00,
2013-04-15 12:20:00,64.0,52.8,29.88,SSW,203,0.0,0.0,67,0.00,,,0.00,WUHU216HW,2013-04-15 16:20:00,
2013-04-15 12:25:00,64.2,53.0,29.89,SE,135,0.0,0.0,67,0.00,,,0.00,WUHU216HW,2013-04-15 16:25:00,
2013-04-15 12:30:00,64.2,52.5,29.88,SW,225,2.4,4.9,66,0.00,,,0.00,WUHU216HW,2013-04-15 16:30:00,
2013-04-15 12:35:00,64.2,52.5,29.88,SSE,158,5.1,5.1,66,0.00,,,0.00,WUHU216HW,2013-04-15 16:35:00,
2013-04-15 12:40:00,64.2,52.5,29.89,SSE,158,5.8,5.8,66,0.00,,,0.00,WUHU216HW,2013-04-15 16:40:00,
2013-04-15 12:45:00,64.2,52.5,29.89,SE,135,0.0,5.8,66,0.00,,,0.00,WUHU216HW,2013-04-15 16:45:00,
2013-04-15 12:50:00,64.2,52.5,29.89,ESE,113,0.0,0.0,66,0.00,,,0.00,WUHU216HW,2013-04-15 16:50:00,
2013-04-15 12:55:00,64.2,52.5,29.89,WNW,293,7.1,7.1,66,0.00,,,0.00,WUHU216HW,2013-04-15 16:55:00,
2013-04-15 13:00:00,64.2,52.5,29.89,ENE,68,0.0,7.1,66,0.00,,,0.00,WUHU216HW,2013-04-15 17:00:00,
2013-04-15 13:05:00,64.2,52.5,29.89,SE,135,0.0,0.0,66,0.00,,,0.00,WUHU216HW,2013-04-15 17:05:00,
2013-04-15 13:10:00,64.2,52.5,29.89,West,270,0.0,1.3,66,0.00,,,0.00,WUHU216HW,2013-04-15 17:10:00,
2013-04-15 13:15:00,64.2,52.5,29.89,WSW,248,0.0,1.3,66,0.00,,,0.00,WUHU216HW,2013-04-15 17:15:00,
2013-04-15 13:20:00,64.2,52.5,29.89,SE,135,0.0,1.5,66,0.00,,,0.00,WUHU216HW,2013-04-15 17:20:00,
2013-04-15 13:25:00,64.4,52.7,29.89,SE,135,0.0,1.5,66,0.00,,,0.00,WUHU216HW,2013-04-15 17:25:00,
2013-04-15 13:30:00,64.5,52.9,29.88,ESE,113,0.0,0.0,66,0.00,,,0.00,WUHU216HW,2013-04-15 17:30:00,
2013-04-15 13:35:00,64.5,52.9,29.88,South,180,0.0,0.0,66,0.00,,,0.00,WUHU216HW,2013-04-15 17:35:00,
2013-04-15 13:40:00,64.5,52.9,29.88,WSW,248,7.1,7.1,66,0.00,,,0.00,WUHU216HW,2013-04-15 17:40:00,
2013-04-15 13:45:00,64.5,52.9,29.88,South,180,0.0,7.1,66,0.00,,,0.00,WUHU216HW,2013-04-15 17:45:00,
2013-04-15 13:50:00,64.5,52.9,29.88,South,180,0.0,7.1,66,0.00,,,0.00,WUHU216HW,2013-04-15 17:50:00,
2013-04-15 13:55:00,64.5,52.9,29.88,SSE,158,0.0,0.0,66,0.00,,,0.00,WUHU216HW,2013-04-15 17:55:00,
2013-04-15 14:00:00,64.5,52.9,29.88,SE,135,0.0,2.9,66,0.00,,,0.00,WUHU216HW,2013-04-15 18:00:00,
2013-04-15 14:05:00,64.7,53.0,29.88,SE,135,0.0,2.9,66,0.00,,,0.00,WUHU216HW,2013-04-15 18:05:00,
2013-04-15 14:10:00,64.7,53.0,29.88,ESE,113,0.0,0.0,66,0.00,,,0.00,WUHU216HW,2013-04-15 18:10:00,
2013-04-15 14:15:00,64.7,53.0,29.88,South,180,0.0,5.1,66,0.00,,,0.00,WUHU216HW,2013-04-15 18:15:00,
2013-04-15 14:20:00,64.7,53.0,29.88,West,270,0.0,6.0,66,0.00,,,0.00,WUHU216HW,2013-04-15 18:20:00,
2013-04-15 14:25:00,64.9,53.2,29.88,ENE,68,0.0,6.0,66,0.00,,,0.00,WUHU216HW,2013-04-15 18:25:00,
2013-04-15 14:30:00,64.9,53.2,29.87,SSE,158,0.0,2.2,66,0.00,,,0.00,WUHU216HW,2013-04-15 18:30:00,
2013-04-15 14:35:00,65.1,53.4,29.87,SE,135,0.0,3.1,66,0.00,,,0.00,WUHU216HW,2013-04-15 18:35:00,
2013-04-15 14:40:00,65.4,54.1,29.86,South,180,2.2,3.1,67,0.00,,,0.00,WUHU216HW,2013-04-15 18:40:00,
2013-04-15 14:45:00,66.0,54.2,29.85,South,180,0.0,5.1,66,0.00,,,0.00,WUHU216HW,2013-04-15 18:45:00,
2013-04-15 14:50:00,66.5,54.8,29.85,East,90,3.5,5.1,66,0.00,,,0.00,WUHU216HW,2013-04-15 18:50:00,
2013-04-15 14:55:00,67.6,55.8,29.85,SE,135,0.0,5.1,66,0.00,,,0.00,WUHU216HW,2013-04-15 18:55:00,
2013-04-15 15:00:00,68.1,55.9,29.85,SSW,203,2.9,4.4,65,0.00,,,0.00,WUHU216HW,2013-04-15 19:00:00,
2013-04-15 15:05:00,68.9,56.6,29.85,South,180,3.5,4.4,65,0.00,,,0.00,WUHU216HW,2013-04-15 19:05:00,
2013-04-15 15:10:00,69.6,56.4,29.84,SSE,158,0.0,4.0,63,0.00,,,0.00,WUHU216HW,2013-04-15 19:10:00,
2013-04-15 15:15:00,69.9,56.8,29.84,ESE,113,0.0,3.3,63,0.00,,,0.00,WUHU216HW,2013-04-15 19:15:00,
2013-04-15 15:20:00,70.7,56.8,29.84,SE,135,0.0,6.4,62,0.00,,,0.00,WUHU216HW,2013-04-15 19:20:00,
2013-04-15 15:25:00,70.8,56.7,29.84,SE,135,5.8,6.7,61,0.00,,,0.00,WUHU216HW,2013-04-15 19:25:00,
2013-04-15 15:30:00,71.2,56.6,29.83,SE,135,5.3,6.7,60,0.00,,,0.00,WUHU216HW,2013-04-15 19:30:00,
2013-04-15 15:36:00,71.4,57.2,29.83,East,90,0.0,5.8,61,0.00,,,0.00,WUHU216HW,2013-04-15 19:36:00,
2013-04-15 15:41:00,71.4,56.8,29.83,SSE,158,0.0,7.1,60,0.00,,,0.00,WUHU216HW,2013-04-15 19:41:00,
2013-04-15 15:46:00,71.7,57.1,29.83,East,90,3.8,7.1,60,0.00,,,0.00,WUHU216HW,2013-04-15 19:46:00,
2013-04-15 15:51:00,72.1,57.0,29.83,ESE,113,2.2,6.2,59,0.00,,,0.00,WUHU216HW,2013-04-15 19:51:00,
2013-04-15 15:57:00,72.1,56.4,29.83,SSW,203,0.0,6.2,58,0.00,,,0.00,WUHU216HW,2013-04-15 19:57:00,
2013-04-15 16:02:00,72.3,56.6,29.83,ESE,113,0.0,5.8,58,0.00,,,0.00,WUHU216HW,2013-04-15 20:02:00,
2013-04-15 16:07:00,72.6,56.9,29.83,ESE,113,0.0,5.8,58,0.00,,,0.00,WUHU216HW,2013-04-15 20:07:00,
2013-04-15 16:12:00,72.8,56.6,29.82,SE,135,4.4,5.3,57,0.00,,,0.00,WUHU216HW,2013-04-15 20:12:00,
2013-04-15 16:17:00,72.6,56.9,29.83,SE,135,4.9,5.3,58,0.00,,,0.00,WUHU216HW,2013-04-15 20:17:00,
2013-04-15 16:22:00,72.6,56.9,29.82,SSE,158,10.7,10.7,58,0.00,,,0.00,WUHU216HW,2013-04-15 20:22:00,
2013-04-15 16:27:00,73.0,57.3,29.83,SE,135,8.2,10.7,58,0.00,,,0.00,WUHU216HW,2013-04-15 20:27:00,
2013-04-15 16:32:00,73.0,56.8,29.82,SSE,158,6.4,10.5,57,0.00,,,0.00,WUHU216HW,2013-04-15 20:32:00,
2013-04-15 16:37:00,73.2,56.9,29.82,SE,135,6.2,10.5,57,0.00,,,0.00,WUHU216HW,2013-04-15 20:37:00,
2013-04-15 16:42:00,73.4,57.1,29.82,ESE,113,1.1,8.2,57,0.00,,,0.00,WUHU216HW,2013-04-15 20:42:00,
2013-04-15 16:47:00,73.5,56.8,29.81,SSW,203,0.0,8.2,56,0.00,,,0.00,WUHU216HW,2013-04-15 20:47:00,
2013-04-15 16:52:00,73.5,56.8,29.81,SE,135,0.0,11.6,56,0.00,,,0.00,WUHU216HW,2013-04-15 20:52:00,
2013-04-15 16:57:00,73.2,56.4,29.81,SE,135,10.0,11.6,56,0.00,,,0.00,WUHU216HW,2013-04-15 20:57:00,
2013-04-15 17:02:00,73.2,56.4,29.81,ESE,113,2.6,10.0,56,0.00,,,0.00,WUHU216HW,2013-04-15 21:02:00,
2013-04-15 17:07:00,73.0,56.3,29.81,ESE,113,0.0,10.0,56,0.00,,,0.00,WUHU216HW,2013-04-15 21:07:00,
2013-04-15 17:12:00,73.2,56.4,29.82,SE,135,0.0,0.0,56,0.00,,,0.00,WUHU216HW,2013-04-15 21:12:00,
2013-04-15 17:17:00,73.4,56.6,29.82,South,180,0.0,6.0,56,0.00,,,0.00,WUHU216HW,2013-04-15 21:17:00,
2013-04-15 17:22:00,73.5,56.8,29.82,ESE,113,0.0,7.8,56,0.00,,,0.00,WUHU216HW,2013-04-15 21:22:00,
2013-04-15 17:27:00,73.5,56.3,29.82,SSE,158,0.0,7.8,55,0.00,,,0.00,WUHU216HW,2013-04-15 21:27:00,
2013-04-15 17:32:00,73.4,56.1,29.82,SSE,158,6.0,6.0,55,0.00,,,0.00,WUHU216HW,2013-04-15 21:32:00,
2013-04-15 17:37:00,73.5,56.3,29.82,SSE,158,0.0,6.0,55,0.00,,,0.00,WUHU216HW,2013-04-15 21:37:00,
2013-04-15 17:42:00,73.5,56.8,29.82,ESE,113,0.0,0.0,56,0.00,,,0.00,WUHU216HW,2013-04-15 21:42:00,
2013-04-15 17:47:00,73.9,57.1,29.82,SE,135,0.0,0.0,56,0.00,,,0.00,WUHU216HW,2013-04-15 21:47:00,
2013-04-15 17:52:00,73.9,57.1,29.82,South,180,8.0,8.0,56,0.00,,,0.00,WUHU216HW,2013-04-15 21:52:00,
2013-04-15 17:57:00,73.7,56.4,29.82,SSE,158,4.4,10.7,55,0.00,,,0.00,WUHU216HW,2013-04-15 21:57:00,
2013-04-15 18:02:00,73.5,56.3,29.82,ESE,113,0.0,10.7,55,0.00,,,0.00,WUHU216HW,2013-04-15 22:02:00,
2013-04-15 18:07:00,73.5,56.3,29.81,SE,135,2.6,5.3,55,0.00,,,0.00,WUHU216HW,2013-04-15 22:07:00,
2013-04-15 18:12:00,73.7,56.4,29.81,ESE,113,1.3,5.3,55,0.00,,,0.00,WUHU216HW,2013-04-15 22:12:00,
2013-04-15 18:17:00,73.7,56.4,29.81,ESE,113,0.0,4.6,55,0.00,,,0.00,WUHU216HW,2013-04-15 22:17:00,
2013-04-15 18:22:00,73.5,56.3,29.81,SSE,158,2.0,5.1,55,0.00,,,0.00,WUHU216HW,2013-04-15 22:22:00,
2013-04-15 18:27:00,73.4,56.1,29.81,East,90,0.0,5.1,55,0.00,,,0.00,WUHU216HW,2013-04-15 22:27:00,
2013-04-15 18:32:00,73.5,56.3,29.81,ESE,113,0.0,2.0,55,0.00,,,0.00,WUHU216HW,2013-04-15 22:32:00,
2013-04-15 18:37:00,73.5,56.1,29.82,SE,135,10.0,10.0,55,0.00,,,0.00,WUHU216HW,2013-04-15 22:37:00,
2013-04-15 18:42:00,73.2,55.9,29.82,ESE,113,0.0,10.0,55,0.00,,,0.00,WUHU216HW,2013-04-15 22:42:00,
2013-04-15 18:47:00,73.0,55.7,29.82,SE,135,0.0,5.3,55,0.00,,,0.00,WUHU216HW,2013-04-15 22:47:00,
2013-04-15 18:52:00,72.8,55.4,29.82,SE,135,0.0,0.0,55,0.00,,,0.00,WUHU216HW,2013-04-15 22:52:00,
2013-04-15 18:57:00,72.5,55.8,29.82,ESE,113,0.0,0.8,56,0.00,,,0.00,WUHU216HW,2013-04-15 22:57:00,
2013-04-15 19:02:00,72.3,55.6,29.82,ESE,113,0.0,0.8,56,0.00,,,0.00,WUHU216HW,2013-04-15 23:02:00,
2013-04-15 19:07:00,72.3,55.6,29.82,ENE,68,0.0,5.5,56,0.00,,,0.00,WUHU216HW,2013-04-15 23:07:00,
2013-04-15 19:12:00,72.3,55.6,29.82,SE,135,0.0,5.5,56,0.00,,,0.00,WUHU216HW,2013-04-15 23:12:00,
2013-04-15 19:17:00,72.1,55.4,29.82,ESE,113,0.0,0.0,56,0.00,,,0.00,WUHU216HW,2013-04-15 23:17:00,
2013-04-15 19:22:00,72.1,55.4,29.82,SE,135,0.0,4.6,56,0.00,,,0.00,WUHU216HW,2013-04-15 23:22:00,
2013-04-15 19:27:00,71.9,55.8,29.81,SSE,158,0.0,4.6,57,0.00,,,0.00,WUHU216HW,2013-04-15 23:27:00,
2013-04-15 19:32:00,71.7,55.6,29.81,SSE,158,0.0,0.0,57,0.00,,,0.00,WUHU216HW,2013-04-15 23:32:00,
2013-04-15 19:37:00,71.7,55.6,29.81,ENE,68,0.0,7.6,57,0.00,,,0.00,WUHU216HW,2013-04-15 23:37:00,
2013-04-15 19:42:00,71.4,55.3,29.81,SE,135,0.0,7.6,57,0.00,,,0.00,WUHU216HW,2013-04-15 23:42:00,
2013-04-15 19:47:00,71.4,55.3,29.80,SSE,158,0.0,0.0,57,0.00,,,0.00,WUHU216HW,2013-04-15 23:47:00,
2013-04-15 19:52:00,71.2,55.6,29.80,East,90,0.0,0.0,58,0.00,,,0.00,WUHU216HW,2013-04-15 23:52:00,
2013-04-15 19:57:00,70.8,55.3,29.80,ENE,68,0.0,0.0,58,0.00,,,0.00,WUHU216HW,2013-04-15 23:57:00,
2013-04-15 20:02:00,70.8,55.3,29.80,ESE,113,0.0,0.0,58,0.00,,,0.00,WUHU216HW,2013-04-16 00:02:00,
2013-04-15 20:07:00,70.5,55.0,29.80,SE,135,0.0,0.0,58,0.00,,,0.00,WUHU216HW,2013-04-16 00:07:00,
2013-04-15 20:12:00,70.3,55.3,29.80,SSE,158,0.0,0.0,59,0.00,,,0.00,WUHU216HW,2013-04-16 00:12:00,
2013-04-15 20:17:00,70.3,54.8,29.80,SSE,158,0.0,0.0,58,0.00,,,0.00,WUHU216HW,2013-04-16 00:17:00,
2013-04-15 20:22:00,69.9,55.0,29.80,SE,135,0.0,0.0,59,0.00,,,0.00,WUHU216HW,2013-04-16 00:22:00,
2013-04-15 20:27:00,69.8,54.8,29.80,SE,135,0.0,0.0,59,0.00,,,0.00,WUHU216HW,2013-04-16 00:27:00,
2013-04-15 20:32:00,69.4,54.5,29.80,East,90,0.0,0.0,59,0.00,,,0.00,WUHU216HW,2013-04-16 00:32:00,
2013-04-15 20:37:00,69.4,54.8,29.80,East,90,5.5,5.5,60,0.00,,,0.00,WUHU216HW,2013-04-16 00:37:00,
2013-04-15 20:42:00,69.0,54.6,29.80,ESE,113,0.0,5.5,60,0.00,,,0.00,WUHU216HW,2013-04-16 00:42:00,
2013-04-15 20:47:00,68.9,54.5,29.80,ESE,113,0.0,5.5,60,0.00,,,0.00,WUHU216HW,2013-04-16 00:47:00,
2013-04-15 20:52:00,68.7,54.3,29.80,East,90,0.0,0.0,60,0.00,,,0.00,WUHU216HW,2013-04-16 00:52:00,
2013-04-15 20:57:00,68.5,54.5,29.80,SSE,158,0.0,0.0,61,0.00,,,0.00,WUHU216HW,2013-04-16 00:57:00,
2013-04-15 21:02:00,68.3,54.3,29.80,SE,135,0.0,0.0,61,0.00,,,0.00,WUHU216HW,2013-04-16 01:02:00,
2013-04-15 21:07:00,68.1,54.1,29.80,SE,135,0.0,0.0,61,0.00,,,0.00,WUHU216HW,2013-04-16 01:07:00,
2013-04-15 21:12:00,68.0,54.0,29.80,SE,135,0.0,0.0,61,0.00,,,0.00,WUHU216HW,2013-04-16 01:12:00,
2013-04-15 21:17:00,67.8,53.8,29.81,East,90,0.0,0.0,61,0.00,,,0.00,WUHU216HW,2013-04-16 01:17:00,
2013-04-15 21:22:00,67.6,54.1,29.81,East,90,0.0,0.0,62,0.00,,,0.00,WUHU216HW,2013-04-16 01:22:00,
2013-04-15 21:27:00,67.6,54.1,29.81,SSE,158,0.0,0.0,62,0.00,,,0.00,WUHU216HW,2013-04-16 01:27:00,
2013-04-15 21:32:00,67.2,53.7,29.82,East,90,0.0,0.0,62,0.00,,,0.00,WUHU216HW,2013-04-16 01:32:00,
2013-04-15 21:37:00,66.9,53.4,29.82,East,90,0.0,0.0,62,0.00,,,0.00,WUHU216HW,2013-04-16 01:37:00,
2013-04-15 21:42:00,66.7,53.2,29.82,East,90,0.0,0.0,62,0.00,,,0.00,WUHU216HW,2013-04-16 01:42:00,
2013-04-15 21:47:00,66.7,53.7,29.82,East,90,0.0,0.0,63,0.00,,,0.00,WUHU216HW,2013-04-16 01:47:00,
2013-04-15 21:52:00,66.3,53.3,29.83,East,90,0.0,0.0,63,0.00,,,0.00,WUHU216HW,2013-04-16 01:52:00,
2013-04-15 21:57:00,66.0,53.0,29.83,East,90,0.0,0.0,63,0.00,,,0.00,WUHU216HW,2013-04-16 01:57:00,
2013-04-15 22:02:00,66.0,53.4,29.83,East,90,0.0,0.0,64,0.00,,,0.00,WUHU216HW,2013-04-16 02:02:00,
2013-04-15 22:07:00,65.4,52.9,29.83,East,90,0.0,0.0,64,0.00,,,0.00,WUHU216HW,2013-04-16 02:07:00,
2013-04-15 22:12:00,65.3,53.1,29.84,East,90,0.0,0.0,65,0.00,,,0.00,WUHU216HW,2013-04-16 02:12:00,
2013-04-15 22:17:00,64.9,52.8,29.84,East,90,0.0,0.0,65,0.00,,,0.00,WUHU216HW,2013-04-16 02:17:00,
2013-04-15 22:22:00,64.5,52.5,29.85,East,90,0.0,0.0,65,0.00,,,0.00,WUHU216HW,2013-04-16 02:22:00,
2013-04-15 22:27:00,64.2,52.1,29.85,East,90,0.0,0.0,65,0.00,,,0.00,WUHU216HW,2013-04-16 02:27:00,
2013-04-15 22:32:00,64.2,52.1,29.85,East,90,0.0,0.0,65,0.00,,,0.00,WUHU216HW,2013-04-16 02:32:00,
2013-04-15 22:37:00,63.6,52.0,29.84,East,90,0.0,0.0,66,0.00,,,0.00,WUHU216HW,2013-04-16 02:37:00,
2013-04-15 22:42:00,63.3,52.1,29.85,East,90,0.0,0.0,67,0.00,,,0.00,WUHU216HW,2013-04-16 02:42:00,
2013-04-15 22:47:00,63.1,51.9,29.85,East,90,0.0,0.0,67,0.00,,,0.00,WUHU216HW,2013-04-16 02:47:00,
2013-04-15 22:52:00,62.7,51.6,29.85,East,90,0.0,0.0,67,0.00,,,0.00,WUHU216HW,2013-04-16 02:52:00,
2013-04-15 22:57:00,62.4,51.7,29.85,East,90,0.0,0.0,68,0.00,,,0.00,WUHU216HW,2013-04-16 02:57:00,
2013-04-15 23:02:00,62.2,51.5,29.84,East,90,0.0,0.0,68,0.00,,,0.00,WUHU216HW,2013-04-16 03:02:00,
2013-04-15 23:07:00,61.8,51.2,29.85,East,90,0.0,0.0,68,0.00,,,0.00,WUHU216HW,2013-04-16 03:07:00,
2013-04-15 23:12:00,61.7,51.0,29.85,East,90,0.0,0.0,68,0.00,,,0.00,WUHU216HW,2013-04-16 03:12:00,
2013-04-15 23:17:00,61.5,51.3,29.85,East,90,0.0,0.0,69,0.00,,,0.00,WUHU216HW,2013-04-16 03:17:00,
2013-04-15 23:22:00,61.3,51.1,29.85,East,90,0.0,0.0,69,0.00,,,0.00,WUHU216HW,2013-04-16 03:22:00,
2013-04-15 23:27:00,61.1,51.4,29.85,East,90,0.0,0.0,70,0.00,,,0.00,WUHU216HW,2013-04-16 03:27:00,
2013-04-15 23:32:00,60.9,51.2,29.85,East,90,0.0,0.0,70,0.00,,,0.00,WUHU216HW,2013-04-16 03:32:00,
2013-04-15 23:37:00,60.6,50.9,29.85,East,90,0.0,0.0,70,0.00,,,0.00,WUHU216HW,2013-04-16 03:37:00,
2013-04-15 23:42:00,60.6,50.9,29.85,East,90,0.0,0.0,70,0.00,,,0.00,WUHU216HW,2013-04-16 03:42:00,
2013-04-15 23:47:00,60.4,51.0,29.85,East,90,0.0,0.0,71,0.00,,,0.00,WUHU216HW,2013-04-16 03:47:00,
2013-04-15 23:52:00,60.0,50.7,29.85,East,90,0.0,0.0,71,0.00,,,0.00,WUHU216HW,2013-04-16 03:52:00,
2013-04-15 23:58:00,59.7,50.3,29.84,East,90,0.0,0.0,71,0.00,,,0.00,WUHU216HW,2013-04-16 03:58:00,